Regional Weather Roundup
Issued by NWS

Home | Current Version | Previous Version | Text Only | Print | Product List | Glossary Off
Versions: 1 2 3 4 5 6 7 8 9 10 11 12 13 14 15 16 17 18 19 20 21 22 23 24 25 26 27 28 29 30 31 32 33 34 35 36 37 38 39 40 41 42 43 44 45 46 47 48 49 50

000
ASUS43 KMKX 030610
RWRWI

WISCONSIN REGIONAL WEATHER ROUNDUP
NATIONAL WEATHER SERVICE MILWAUKEE/SULLIVAN WI
1200 AM CST TUE MAR 03 2015

NOTE: "FAIR" INDICATES FEW OR NO CLOUDS BELOW 12,000 FEET WITH NO
SIGNIFICANT WEATHER AND/OR OBSTRUCTIONS TO VISIBILITY.

WIZ001-002-006>008-014>016-023>028-030700-
NORTHWEST WISCONSIN

CITY           SKY/WX    TMP DP  RH WIND       PRES   REMARKS
SUPERIOR ARPT  CLOUDY    22   5  48 SW5       30.02F WCI  16
6HR MIN TEMP:  20; 6HR MAX TEMP:  25;

ASHLAND        CLOUDY    22   4  46 S9        30.04F WCI  12
6HR MIN TEMP:  16; 6HR MAX TEMP:  24;

HAYWARD        CLOUDY    21   6  52 S10       30.02F WCI  10
6HR MIN TEMP:  17; 6HR MAX TEMP:  21;

SIREN          CLOUDY    22   7  53 S9        30.04F WCI  11
6HR MIN TEMP:  21; 6HR MAX TEMP:  22;

CUMBERLAND     CLOUDY    21   9  58 S8        30.05F WCI  12
RICE LAKE      CLOUDY    22   9  57 S7        30.08F WCI  13
6HR MIN TEMP:  21; 6HR MAX TEMP:  22;

CHETEK         CLOUDY    22   8  56 S10       30.07F WCI  11
6HR MIN TEMP:  22; 6HR MAX TEMP:  22;

LADYSMITH      CLOUDY    22   9  56 S5        30.08F WCI  16
6HR MIN TEMP:  20; 6HR MAX TEMP:  22;

EAU CLAIRE     CLOUDY    23  11  60 S9        30.09F WCI  13
6HR MIN TEMP:  23; 6HR MAX TEMP:  24;

MENOMONIE      CLOUDY    23  10  55 SE5       30.09F WCI  17
6HR MIN TEMP:  23; 6HR MAX TEMP:  24;

NEW RICHMOND   CLOUDY    21  10  63 S8        30.06F WCI  11
6HR MIN TEMP:  21; 6HR MAX TEMP:  22;

OSCEOLA        CLOUDY    22  11  64 S10       30.08F WCI  11
6HR MIN TEMP:  22; 6HR MAX TEMP:  23;

$$

WIZ003>005-009-010-017-018-030700-
NORTH CENTRAL WISCONSIN

CITY           SKY/WX    TMP DP  RH WIND       PRES   REMARKS
MANITOWISH WTR CLOUDY    16   3  57 S5        30.03F WCI   9
6HR MIN TEMP:  12; 6HR MAX TEMP:  21;

ARBOR VITAE    CLOUDY    19   6  55 S7        30.03F WCI  10
6HR MIN TEMP:  17; 6HR MAX TEMP:  23;

WOODRUFF       CLOUDY    19   6  55 S7        30.03F WCI  10
6HR MIN TEMP:  17; 6HR MAX TEMP:  23;

RHINELANDER    CLOUDY    20   5  52 S10       30.05F WCI   9
6HR MIN TEMP:  16; 6HR MAX TEMP:  22;

EAGLE RIVER    CLOUDY    18   1  48 S6        30.04F WCI  10
6HR MIN TEMP:  14; 6HR MAX TEMP:  22;

LAND O LAKES   MOCLDY    18   3  51 S3        30.04F
6HR MIN TEMP:  12; 6HR MAX TEMP:  23;

PHILLIPS       CLOUDY    19   6  55 S9        30.03F WCI   9
6HR MIN TEMP:  15; 6HR MAX TEMP:  20;

TOMAHAWK       CLOUDY    19   6  55 CALM      30.07F
6HR MIN TEMP:  14; 6HR MAX TEMP:  19;

MEDFORD        CLOUDY    19  11  68 S8        30.07F WCI   9
6HR MIN TEMP:  17; 6HR MAX TEMP:  20;

MERRILL        CLOUDY    22   8  54 S6        30.08F WCI  15
6HR MIN TEMP:  13; 6HR MAX TEMP:  22;

$$

WIZ029-030-035-036-043>047-030700-
CENTRAL WISCONSIN

CITY           SKY/WX    TMP DP  RH WIND       PRES   REMARKS
WAUSAU         CLOUDY    23   9  55 S9        30.09F WCI  13
6HR MIN TEMP:  20; 6HR MAX TEMP:  23;

MOSINEE        FAIR      23  12  63 S10       30.11F WCI  12
MARSHFIELD     CLOUDY    24  10  55 S10       30.10F WCI  14
6HR MIN TEMP:  21; 6HR MAX TEMP:  24;

STEVENS POINT  CLOUDY    22  11  64 S9        30.13F WCI  11
6HR MIN TEMP:  21; 6HR MAX TEMP:  23;

WAUPACA        CLOUDY    26  13  59 S6        30.17F WCI  19
6HR MIN TEMP:  26; 6HR MAX TEMP:  27;

WAUTOMA        MIX PCPN  23  18  81 S6        30.18F WCI  16
6HR MIN TEMP:  23; 6HR MAX TEMP:  27; 6HR PCP: TRACE;

WISC RAPIDS    LGT SNOW  21  15  78 S8        30.15F WCI  11
6HR MIN TEMP:  22; 6HR MAX TEMP:  25; 6HR PCP: TRACE;

CAMP DOUGLAS   FAIR      24  17  74 SE6       30.14F WCI  17
6HR MIN TEMP:  24; 6HR MAX TEMP:  26;

$$

WIZ011>013-019>022-031-037>040-048>050-030700-
NORTHEAST WISCONSIN

CITY           SKY/WX    TMP DP  RH WIND       PRES   REMARKS
ANTIGO         CLOUDY    19  10  68 S8        30.08F WCI   8
6HR MIN TEMP:   8; 6HR MAX TEMP:  19;

SHAWANO        CLOUDY    26  12  56 S3        30.16F
6HR MIN TEMP:  23; 6HR MAX TEMP:  26;

OCONTO         CLOUDY    22  17  82 SE3       30.18F
6HR MIN TEMP:  19; 6HR MAX TEMP:  23;

STURGEON BAY   CLOUDY    23  16  74 S6        30.22F WCI  16
6HR MIN TEMP:  18; 6HR MAX TEMP:  23;

GREEN BAY      CLOUDY    24  17  74 S6        30.19F WCI  17
6HR MIN TEMP:  23; 6HR MAX TEMP:  24;

MANITOWOC      CLOUDY    26  16  65 S9        30.21F WCI  17
6HR MIN TEMP:  23; 6HR MAX TEMP:  26;

APPLETON       CLOUDY    25  14  63 S9        30.18F WCI  15
CLINTONVILLE   CLOUDY    25  14  63 S7        30.16F WCI  17
OSHKOSH        CLOUDY    24  15  68 S10       30.18F WCI  14
6HR MIN TEMP:  22; 6HR MAX TEMP:  25;

$$

WIZ032>034-041-042-053>061-030700-
SOUTHWEST WISCONSIN

CITY           SKY/WX    TMP DP  RH WIND       PRES   REMARKS
LA CROSSE      CLOUDY    26  14  60 S8        30.13F WCI  18
6HR MIN TEMP:  26; 6HR MAX TEMP:  27;

SPARTA         CLOUDY    24  14  66 S7        30.14F WCI  16
6HR MIN TEMP:  24; 6HR MAX TEMP:  26;

VIROQUA        CLOUDY    22  16  75 SE8       30.10F WCI  13
6HR MIN TEMP:  22; 6HR MAX TEMP:  25;

BOSCOBEL       CLOUDY    26  15  63 CALM      30.15F
6HR MIN TEMP:  25; 6HR MAX TEMP:  27;

PRAIRIE DU CHI CLOUDY    25  16  67 E7        30.14F WCI  18
6HR MIN TEMP:  25; 6HR MAX TEMP:  27;

PLATTEVILLE    CLOUDY    24  19  81 E9        30.13F WCI  14
6HR MIN TEMP:  23; 6HR MAX TEMP:  25;

$$

WIZ056-057-062-063-064-067-068-030700-
SOUTH CENTRAL WISCONSIN

CITY           SKY/WX    TMP DP  RH WIND       PRES   REMARKS
REEDSBURG      CLOUDY    23  15  69 S7        30.15F WCI  15
6HR MIN TEMP:  23; 6HR MAX TEMP:  26;

BARABOO/DELLS  CLOUDY    23  15  73 S6        30.14F WCI  16
6HR MIN TEMP:  23; 6HR MAX TEMP:  26;

LONE ROCK      CLOUDY    24  16  71 SE5       30.17F WCI  18
6HR MIN TEMP:  24; 6HR MAX TEMP:  25;

MINERAL POINT  CLOUDY    27  19  74 SE9       30.12F WCI  17
MADISON        CLOUDY    24  15  68 S10       30.17F WCI  14
6HR MIN TEMP:  24; 6HR MAX TEMP:  26;

MIDDLETON      CLOUDY    26  16  65 S6        30.17F WCI  19
6HR MIN TEMP:  25; 6HR MAX TEMP:  27;

WATERTOWN      CLOUDY    24  17  74 SE5       30.18F WCI  18
6HR MIN TEMP:  24; 6HR MAX TEMP:  25;

MONROE         CLOUDY    23  19  86 SE8       30.14F WCI  14
JANESVILLE     CLOUDY    27  14  59 S7        30.19F WCI  19
$$

WIZ051-052-058>065-066-070>072-030700-
SOUTHEAST WISCONSIN

CITY           SKY/WX    TMP DP  RH WIND       PRES   REMARKS
MILWAUKEE      CLOUDY    26  16  65 SW8       30.23F WCI  18
6HR MIN TEMP:  25; 6HR MAX TEMP:  26;

WAUKESHA       CLOUDY    23  16  74 S3        30.21F
MILWAUKEE/TIMM CLOUDY    27  18  69 S7        30.23F WCI  19
RACINE         CLOUDY    26  16  65 S3        30.24F
6HR MIN TEMP:  25; 6HR MAX TEMP:  27;

BURLINGTON     CLOUDY    23  14  68 S5        30.20F WCI  17
6HR MIN TEMP:  22; 6HR MAX TEMP:  23;

KENOSHA        CLOUDY    26  16  65 S8        30.21F WCI  18
6HR MIN TEMP:  25; 6HR MAX TEMP:  27;

FOND DU LAC    FLURRIES  24  16  71 S8        30.19F WCI  15
6HR MIN TEMP:  24; 6HR MAX TEMP:  26; 6HR PCP: TRACE;

SHEBOYGAN      CLOUDY    25  15  66 S7        30.21F WCI  17
6HR MIN TEMP:  24; 6HR MAX TEMP:  25;

WEST BEND      CLOUDY    25  14  63 S3        30.20F
JUNEAU         CLOUDY    24  16  72 S6        30.19F WCI  16
6HR MIN TEMP:  24; 6HR MAX TEMP:  25;

$$

LSZ147-162-030700-
LAKE SUPERIOR

STATION/POSITION TIME  TEMP    WIND        PRES    WAVE
                       AIR SEA DIR/SP/G            HT/PER
                 (UTC) (F)     (DEG/KT/KT) (MB)    (FT/S)
DEVILS ISLAND    0600   21     190/  5/  7 1018.3F
PORT WING        0500   23     200/  5/ 10 1018.3F
SAXON HARBOR     0500   23     180/  4/ 12 1018.3F
$$

LMZ867-665-643>646-030700-
LAKE MICHIGAN

STATION/POSITION TIME  TEMP    WIND        PRES    WAVE



USA.gov is the U.S. government's official web portal to all federal, state and local government web resources and services.